WHDW 11-03

operational
NORAD ID: 65819 Int'l Des: 2025-220 Owner: ZXW Country: CN
LEOCIRCULARPOLARONEWEB_TYPE

Über WHDW 11-03

Beschreibung wird geladen...

Live-Position

3D-Globus wird geladen...

Nächste Überflüge

Höhenverlauf

Altitude vs Time

uPlot chart will show altitude changes over time

Zweizeiliger Elementsatz

1 65819U 25220C 26061.09761975 .00000047 00000-0 75384-4 0 9991
2 65819 86.4857 79.9548 0002209 102.1076 258.0306 13.24421242 20743
Epoch: 2. März 2026 • Age: 31 hours

Aktueller Status

Höhe 1186.3 km
Geschwindigkeit 7.26 km/s
Subsatellitenpunkt -44.28°S, 168.1°E
Startdatum 27. Sept. 2025
Alter 0.4 years
Typ other

Technische Details

Klassifizierung Payload
Masse 800.00 kg
Trockenmasse 800.00 kg
Gesamtmasse 800.00 kg
Länge 3.00 m
Durchmesser 1.00 m
Spannweite 10.00 m
Form Box + 2 Pan
Hersteller SECM
Bus-Typ Xingwang S
Phasenstatus In Orbit
Besitzer/Staat ZXW/CN

Große Konstellationen

Loading constellations...